Вернуться в каталог

STARLINK-34424

АктивенСвязьVLEO
NORAD 64295·PAYLOAD·🇺🇸 United States

Запущен Jun 8, 2025 с Vandenberg Space Force Base

Loading…

Ближайшие Пролёты (ближайшие 24 часа)

TLE

СвежийSource: CelesTrak SupGP

Эпоха: Sep 14, 2026, 15:17 UTC

1 64295C 25123E   26257.63729167 -.00045388  00000+0 -15790-2 0  2572
2 64295  70.0006  76.3527 0003301 269.3400  86.7190 15.29600604    17

Отслеживайте STARLINK-34424 в реальном времени с AllMySat

Download on the App Store